date,time,SUV Intensity [MED/Hr],UV Index,Daily total [MED],Since Last [MED]
19/04/2023,00:00:46,0.001,0.0,0.0,0.0
19/04/2023,00:01:47,0.000,0.0,0.0,0.0
19/04/2023,00:02:47,0.001,0.0,0.0,0.0
19/04/2023,00:03:47,0.000,0.0,0.0,0.0
19/04/2023,00:04:46,0.000,0.0,0.0,0.0
19/04/2023,00:05:46,0.000,0.0,0.0,0.0
19/04/2023,00:06:46,-0.000,0.0,0.0,0.0
19/04/2023,00:07:46,-0.000,0.0,0.0,0.0
19/04/2023,00:08:47,-0.001,0.0,0.0,0.0
19/04/2023,00:09:46,-0.001,0.0,0.0,0.0
19/04/2023,00:10:46,0.001,0.0,0.0,0.0
19/04/2023,00:11:47,-0.001,0.0,0.0,0.0
19/04/2023,00:12:46,0.000,0.0,0.0,0.0
19/04/2023,00:13:46,0.000,0.0,0.0,0.0
19/04/2023,00:14:46,-0.001,0.0,0.0,0.0
19/04/2023,00:15:47,0.000,0.0,0.0,0.0
19/04/2023,00:16:47,0.000,0.0,0.0,0.0
19/04/2023,00:17:47,0.001,0.0,0.0,0.0
19/04/2023,00:18:46,0.000,0.0,0.0,0.0
19/04/2023,00:19:46,0.000,0.0,0.0,0.0
19/04/2023,00:20:46,0.000,0.0,0.0,0.0
19/04/2023,00:21:46,0.001,0.0,0.0,0.0
19/04/2023,00:22:46,0.000,0.0,0.0,0.0
19/04/2023,00:23:46,0.001,0.0,0.0,0.0
19/04/2023,00:24:46,0.000,0.0,0.0,0.0
19/04/2023,00:25:47,0.000,0.0,0.0,0.0
19/04/2023,00:26:47,0.000,0.0,0.0,0.0
19/04/2023,00:27:46,0.000,0.0,0.0,0.0
19/04/2023,00:28:46,-0.001,0.0,0.0,0.0
19/04/2023,00:29:46,0.000,0.0,0.0,0.0
19/04/2023,00:30:47,0.000,0.0,0.0,0.0
19/04/2023,00:31:47,-0.000,0.0,0.0,0.0
19/04/2023,00:32:47,0.001,0.0,0.0,0.0
19/04/2023,00:33:47,0.000,0.0,0.0,0.0
19/04/2023,00:34:46,0.000,0.0,0.0,0.0
19/04/2023,00:35:47,0.000,0.0,0.0,0.0
19/04/2023,00:36:47,-0.001,0.0,0.0,0.0
19/04/2023,00:37:47,-0.001,0.0,0.0,0.0
19/04/2023,00:38:46,0.000,0.0,0.0,0.0
19/04/2023,00:39:46,0.000,0.0,0.0,0.0
19/04/2023,00:40:46,-0.000,0.0,0.0,0.0
19/04/2023,00:41:47,-0.001,0.0,0.0,0.0
19/04/2023,00:42:47,-0.000,0.0,0.0,0.0
19/04/2023,00:43:47,0.000,0.0,0.0,0.0
19/04/2023,00:44:46,0.000,0.0,0.0,0.0
19/04/2023,00:45:46,-0.000,0.0,0.0,0.0
19/04/2023,00:46:46,-0.001,0.0,0.0,0.0
19/04/2023,00:47:47,0.001,0.0,0.0,0.0
19/04/2023,00:48:47,0.000,0.0,0.0,0.0
19/04/2023,00:49:47,0.000,0.0,0.0,0.0
19/04/2023,00:50:47,0.000,0.0,0.0,0.0
19/04/2023,00:51:48,0.000,0.0,0.0,0.0
19/04/2023,00:52:47,0.000,0.0,0.0,0.0
19/04/2023,00:53:46,0.000,0.0,0.0,0.0
19/04/2023,00:54:46,0.000,0.0,0.0,0.0
19/04/2023,00:55:47,0.000,0.0,0.0,0.0
19/04/2023,00:56:47,-0.001,0.0,0.0,0.0
19/04/2023,00:57:46,0.000,0.0,0.0,0.0
19/04/2023,00:58:47,-0.001,0.0,0.0,0.0
19/04/2023,00:59:47,0.000,0.0,0.0,0.0
19/04/2023,01:00:46,0.000,0.0,0.0,0.0
19/04/2023,01:01:47,0.001,0.0,0.0,0.0
19/04/2023,01:02:47,0.000,0.0,0.0,0.0
19/04/2023,01:03:46,0.000,0.0,0.0,0.0
19/04/2023,01:04:47,0.000,0.0,0.0,0.0
19/04/2023,01:05:47,0.001,0.0,0.0,0.0
19/04/2023,01:06:47,0.000,0.0,0.0,0.0
19/04/2023,01:07:47,-0.000,0.0,0.0,0.0
19/04/2023,01:08:46,0.000,0.0,0.0,0.0
19/04/2023,01:09:47,0.000,0.0,0.0,0.0
19/04/2023,01:10:47,0.000,0.0,0.0,0.0
19/04/2023,01:11:47,0.000,0.0,0.0,0.0
19/04/2023,01:12:46,0.000,0.0,0.0,0.0
19/04/2023,01:13:47,-0.000,0.0,0.0,0.0
19/04/2023,01:14:47,-0.000,0.0,0.0,0.0
19/04/2023,01:15:47,-0.000,0.0,0.0,0.0
19/04/2023,01:16:47,-0.000,0.0,0.0,0.0
19/04/2023,01:17:47,0.000,0.0,0.0,0.0
19/04/2023,01:18:46,-0.000,0.0,0.0,0.0
19/04/2023,01:19:47,0.000,0.0,0.0,0.0
19/04/2023,01:20:46,0.000,0.0,0.0,0.0
19/04/2023,01:21:46,0.000,0.0,0.0,0.0
19/04/2023,01:22:47,0.000,0.0,0.0,0.0
19/04/2023,01:23:47,-0.001,0.0,0.0,0.0
19/04/2023,01:24:46,0.001,0.0,0.0,0.0
19/04/2023,01:25:46,0.002,0.0,0.0,0.0
19/04/2023,01:26:46,0.000,0.0,0.0,0.0
19/04/2023,01:27:46,0.000,0.0,0.0,0.0
19/04/2023,01:28:46,0.000,0.0,0.0,0.0
19/04/2023,01:29:46,0.000,0.0,0.0,0.0
19/04/2023,01:30:47,0.001,0.0,0.0,0.0
19/04/2023,01:31:47,0.000,0.0,0.0,0.0
19/04/2023,01:32:47,0.001,0.0,0.0,0.0
19/04/2023,01:33:46,0.001,0.0,0.0,0.0
19/04/2023,01:34:46,0.000,0.0,0.0,0.0
19/04/2023,01:35:47,0.000,0.0,0.0,0.0
19/04/2023,01:36:46,0.001,0.0,0.0,0.0
19/04/2023,01:37:47,-0.000,0.0,0.0,0.0
19/04/2023,01:38:47,0.000,0.0,0.0,0.0
19/04/2023,01:39:47,0.001,0.0,0.0,0.0
19/04/2023,01:40:46,0.001,0.0,0.0,0.0
19/04/2023,01:41:47,0.001,0.0,0.0,0.0
19/04/2023,01:42:47,0.001,0.0,0.0,0.0
19/04/2023,01:43:48,0.001,0.0,0.0,0.0
19/04/2023,01:44:47,0.001,0.0,0.0,0.0
19/04/2023,01:45:47,0.001,0.0,0.0,0.0
19/04/2023,01:46:47,0.001,0.0,0.0,0.0
19/04/2023,01:47:47,0.001,0.0,0.0,0.0
19/04/2023,01:48:47,0.001,0.0,0.0,0.0
19/04/2023,01:49:47,0.000,0.0,0.0,0.0
19/04/2023,01:50:47,0.001,0.0,0.0,0.0
19/04/2023,01:51:47,0.001,0.0,0.0,0.0
19/04/2023,01:52:47,0.001,0.0,0.0,0.0
19/04/2023,01:53:47,0.000,0.0,0.0,0.0
19/04/2023,01:54:47,0.001,0.0,0.0,0.0
19/04/2023,01:55:46,0.001,0.0,0.0,0.0
19/04/2023,01:56:47,0.001,0.0,0.0,0.0
19/04/2023,01:57:47,0.001,0.0,0.0,0.0
19/04/2023,01:58:46,0.001,0.0,0.0,0.0
19/04/2023,01:59:47,0.001,0.0,0.0,0.0
19/04/2023,02:00:47,0.001,0.0,0.0,0.0
19/04/2023,02:01:47,0.001,0.0,0.0,0.0
19/04/2023,02:02:46,0.001,0.0,0.0,0.0
19/04/2023,02:03:46,0.001,0.0,0.0,0.0
19/04/2023,02:04:47,0.000,0.0,0.0,0.0
19/04/2023,02:05:47,0.001,0.0,0.0,0.0
19/04/2023,02:06:47,0.001,0.0,0.0,0.0
19/04/2023,02:07:47,0.001,0.0,0.0,0.0
19/04/2023,02:08:46,0.001,0.0,0.0,0.0
19/04/2023,02:09:46,-0.000,0.0,0.0,0.0
19/04/2023,02:10:47,0.001,0.0,0.0,0.0
19/04/2023,02:11:47,0.001,0.0,0.0,0.0
19/04/2023,02:12:47,0.001,0.0,0.0,0.0
19/04/2023,02:13:47,0.001,0.0,0.0,0.0
19/04/2023,02:14:46,0.001,0.0,0.0,0.0
19/04/2023,02:15:47,0.001,0.0,0.0,0.0
19/04/2023,02:16:47,0.000,0.0,0.0,0.0
19/04/2023,02:17:46,0.001,0.0,0.0,0.0
19/04/2023,02:18:47,0.001,0.0,0.0,0.0
19/04/2023,02:19:47,0.001,0.0,0.0,0.0
19/04/2023,02:20:47,0.001,0.0,0.0,0.0
19/04/2023,02:21:47,0.001,0.0,0.0,0.0
19/04/2023,02:22:47,0.001,0.0,0.0,0.0
19/04/2023,02:23:46,0.000,0.0,0.0,0.0
19/04/2023,02:24:46,0.000,0.0,0.0,0.0
19/04/2023,02:25:45,-0.000,0.0,0.0,0.0
19/04/2023,02:26:47,0.000,0.0,0.0,0.0
19/04/2023,02:27:46,0.001,0.0,0.0,0.0
19/04/2023,02:28:47,0.001,0.0,0.0,0.0
19/04/2023,02:29:47,0.001,0.0,0.0,0.0
19/04/2023,02:30:47,0.001,0.0,0.0,0.0
19/04/2023,02:31:46,0.001,0.0,0.0,0.0
19/04/2023,02:32:46,0.000,0.0,0.0,0.0
19/04/2023,02:33:46,0.001,0.0,0.0,0.0
19/04/2023,02:34:46,0.001,0.0,0.0,0.0
19/04/2023,02:35:47,-0.000,0.0,0.0,0.0
19/04/2023,02:36:47,0.000,0.0,0.0,0.0
19/04/2023,02:37:47,-0.000,0.0,0.0,0.0
19/04/2023,02:38:47,0.001,0.0,0.0,0.0
19/04/2023,02:39:47,0.001,0.0,0.0,0.0
19/04/2023,02:40:46,0.001,0.0,0.0,0.0
19/04/2023,02:41:47,0.001,0.0,0.0,0.0
19/04/2023,02:42:47,0.001,0.0,0.0,0.0
19/04/2023,02:43:47,0.001,0.0,0.0,0.0
19/04/2023,02:44:47,0.001,0.0,0.0,0.0
19/04/2023,02:45:46,0.001,0.0,0.0,0.0
19/04/2023,02:46:47,0.001,0.0,0.0,0.0
19/04/2023,02:47:47,0.001,0.0,0.0,0.0
19/04/2023,02:48:47,0.000,0.0,0.0,0.0
19/04/2023,02:49:46,0.001,0.0,0.0,0.0
19/04/2023,02:50:47,0.001,0.0,0.0,0.0
19/04/2023,02:51:47,0.001,0.0,0.0,0.0
19/04/2023,02:52:47,0.001,0.0,0.0,0.0
19/04/2023,02:53:46,0.000,0.0,0.0,0.0
19/04/2023,02:54:47,0.001,0.0,0.0,0.0
19/04/2023,02:55:47,0.001,0.0,0.0,0.0
19/04/2023,02:56:46,0.000,0.0,0.0,0.0
19/04/2023,02:57:47,0.001,0.0,0.0,0.0
19/04/2023,02:58:47,0.001,0.0,0.0,0.0
19/04/2023,02:59:47,0.001,0.0,0.0,0.0
19/04/2023,03:00:47,0.001,0.0,0.0,0.0
19/04/2023,03:01:46,0.001,0.0,0.0,0.0
19/04/2023,03:02:47,0.001,0.0,0.0,0.0
19/04/2023,03:03:47,0.000,0.0,0.0,0.0
19/04/2023,03:04:46,0.001,0.0,0.0,0.0
19/04/2023,03:05:47,0.001,0.0,0.0,0.0
19/04/2023,03:06:47,0.001,0.0,0.0,0.0
19/04/2023,03:07:48,0.001,0.0,0.0,0.0
19/04/2023,03:08:46,0.001,0.0,0.0,0.0
19/04/2023,03:09:47,0.001,0.0,0.0,0.0
19/04/2023,03:10:47,0.001,0.0,0.0,0.0
19/04/2023,03:11:47,0.001,0.0,0.0,0.0
19/04/2023,03:12:47,0.001,0.0,0.0,0.0
19/04/2023,03:13:47,0.001,0.0,0.0,0.0
19/04/2023,03:14:48,0.001,0.0,0.0,0.0
19/04/2023,03:15:47,0.001,0.0,0.0,0.0
19/04/2023,03:16:47,0.001,0.0,0.0,0.0
19/04/2023,03:17:47,0.001,0.0,0.0,0.0
19/04/2023,03:18:47,0.001,0.0,0.0,0.0
19/04/2023,03:19:47,0.001,0.0,0.0,0.0
19/04/2023,03:20:47,0.001,0.0,0.0,0.0
19/04/2023,03:21:47,0.001,0.0,0.0,0.0
19/04/2023,03:22:47,0.000,0.0,0.0,0.0
19/04/2023,03:23:46,0.001,0.0,0.0,0.0
19/04/2023,03:24:47,0.000,0.0,0.0,0.0
19/04/2023,03:25:47,0.001,0.0,0.0,0.0
19/04/2023,03:26:47,0.002,0.0,0.0,0.0
19/04/2023,03:27:47,0.001,0.0,0.0,0.0
19/04/2023,03:28:46,0.001,0.0,0.0,0.0
19/04/2023,03:29:47,0.001,0.0,0.0,0.0
19/04/2023,03:30:47,0.001,0.0,0.0,0.0
19/04/2023,03:31:46,0.001,0.0,0.0,0.0
19/04/2023,03:32:47,0.000,0.0,0.0,0.0
19/04/2023,03:33:46,0.001,0.0,0.0,0.0
19/04/2023,03:34:46,0.001,0.0,0.0,0.0
19/04/2023,03:35:46,0.001,0.0,0.0,0.0
19/04/2023,03:36:47,0.001,0.0,0.0,0.0
19/04/2023,03:37:47,0.001,0.0,0.0,0.0
19/04/2023,03:38:47,0.001,0.0,0.0,0.0
19/04/2023,03:39:47,0.001,0.0,0.0,0.0
19/04/2023,03:40:47,0.000,0.0,0.0,0.0
19/04/2023,03:41:47,0.001,0.0,0.0,0.0
19/04/2023,03:42:51,0.001,0.0,0.0,0.0
19/04/2023,03:43:48,0.001,0.0,0.0,0.0
19/04/2023,03:44:46,0.001,0.0,0.0,0.0
19/04/2023,03:45:47,0.002,0.0,0.0,0.0
19/04/2023,03:46:47,0.001,0.0,0.0,0.0
19/04/2023,03:47:46,0.000,0.0,0.0,0.0
19/04/2023,03:48:47,0.002,0.0,0.0,0.0
19/04/2023,03:49:47,0.003,0.0,0.0,0.0
19/04/2023,03:50:47,0.001,0.0,0.0,0.0
19/04/2023,03:51:47,0.001,0.0,0.0,0.0
19/04/2023,03:52:46,0.001,0.0,0.0,0.0
19/04/2023,03:53:47,0.000,0.0,0.0,0.0
19/04/2023,03:54:47,0.001,0.0,0.0,0.0
19/04/2023,03:55:46,0.001,0.0,0.0,0.0
19/04/2023,03:56:46,0.001,0.0,0.0,0.0
19/04/2023,03:57:46,0.001,0.0,0.0,0.0
19/04/2023,03:58:46,0.001,0.0,0.0,0.0
19/04/2023,03:59:47,0.002,0.0,0.0,0.0
19/04/2023,04:00:46,0.001,0.0,0.0,0.0
19/04/2023,04:01:47,0.001,0.0,0.0,0.0
19/04/2023,04:02:47,0.001,0.0,0.0,0.0
19/04/2023,04:03:47,0.001,0.0,0.0,0.0
19/04/2023,04:04:47,0.001,0.0,0.0,0.0
19/04/2023,04:05:47,0.001,0.0,0.0,0.0
19/04/2023,04:06:47,0.001,0.0,0.0,0.0
19/04/2023,04:07:46,0.000,0.0,0.0,0.0
19/04/2023,04:08:47,0.001,0.0,0.0,0.0
19/04/2023,04:09:46,0.001,0.0,0.0,0.0
19/04/2023,04:10:47,0.000,0.0,0.0,0.0
19/04/2023,04:11:47,0.001,0.0,0.0,0.0
19/04/2023,04:12:47,0.001,0.0,0.0,0.0
19/04/2023,04:13:46,0.001,0.0,0.0,0.0
19/04/2023,04:14:47,0.001,0.0,0.0,0.0
19/04/2023,04:15:47,0.001,0.0,0.0,0.0
19/04/2023,04:16:47,0.001,0.0,0.0,0.0
19/04/2023,04:17:47,0.001,0.0,0.0,0.0
19/04/2023,04:18:47,0.002,0.0,0.0,0.0
19/04/2023,04:19:46,0.001,0.0,0.0,0.0
19/04/2023,04:20:46,0.001,0.0,0.0,0.0
19/04/2023,04:21:46,0.001,0.0,0.0,0.0
19/04/2023,04:22:46,0.001,0.0,0.0,0.0
19/04/2023,04:23:46,0.001,0.0,0.0,0.0
19/04/2023,04:24:46,0.000,0.0,0.0,0.0
19/04/2023,04:25:47,0.001,0.0,0.0,0.0
19/04/2023,04:26:47,0.001,0.0,0.0,0.0
19/04/2023,04:27:47,0.001,0.0,0.0,0.0
19/04/2023,04:28:47,0.001,0.0,0.0,0.0
19/04/2023,04:29:47,0.002,0.0,0.0,0.0
19/04/2023,04:30:47,0.001,0.0,0.0,0.0
19/04/2023,04:31:47,0.001,0.0,0.0,0.0
19/04/2023,04:32:47,0.001,0.0,0.0,0.0
19/04/2023,04:33:46,0.001,0.0,0.0,0.0
19/04/2023,04:34:47,0.002,0.0,0.0,0.0
19/04/2023,04:35:47,0.001,0.0,0.0,0.0
19/04/2023,04:36:47,0.001,0.0,0.0,0.0
19/04/2023,04:37:47,0.002,0.0,0.0,0.0
19/04/2023,04:38:47,0.002,0.0,0.0,0.0
19/04/2023,04:39:48,0.002,0.0,0.0,0.0
19/04/2023,04:40:47,0.002,0.0,0.0,0.0
19/04/2023,04:41:47,0.002,0.0,0.0,0.0
19/04/2023,04:42:47,0.002,0.0,0.0,0.0
19/04/2023,04:43:47,0.002,0.0,0.0,0.0
19/04/2023,04:44:46,0.001,0.0,0.0,0.0
19/04/2023,04:45:47,0.002,0.0,0.0,0.0
19/04/2023,04:46:47,0.002,0.0,0.0,0.0
19/04/2023,04:47:47,0.001,0.0,0.0,0.0
19/04/2023,04:48:47,0.002,0.0,0.0,0.0
19/04/2023,04:49:47,0.002,0.0,0.0,0.0
19/04/2023,04:50:47,0.002,0.0,0.0,0.0
19/04/2023,04:51:47,0.002,0.0,0.0,0.0
19/04/2023,04:52:47,0.002,0.0,0.0,0.0
19/04/2023,04:53:46,0.002,0.0,0.0,0.0
19/04/2023,04:54:47,0.003,0.0,0.0,0.0
19/04/2023,04:55:47,0.001,0.0,0.0,0.0
19/04/2023,04:56:47,0.003,0.0,0.0,0.0
19/04/2023,04:57:47,0.003,0.0,0.0,0.0
19/04/2023,04:58:47,0.003,0.0,0.0,0.0
19/04/2023,04:59:47,0.004,0.0,0.0,0.0
19/04/2023,05:00:47,0.003,0.0,0.0,0.0
19/04/2023,05:01:46,0.003,0.0,0.0,0.0
19/04/2023,05:02:47,0.003,0.0,0.0,0.0
19/04/2023,05:03:47,0.003,0.0,0.0,0.0
19/04/2023,05:04:47,0.004,0.0,0.0,0.0
19/04/2023,05:05:47,0.003,0.0,0.0,0.0
19/04/2023,05:06:47,0.004,0.0,0.0,0.0
19/04/2023,05:07:47,0.004,0.0,0.0,0.0
19/04/2023,05:08:47,0.005,0.0,0.0,0.0
19/04/2023,05:09:47,0.005,0.0,0.0,0.0
19/04/2023,05:10:48,0.006,0.0,0.0,0.0
19/04/2023,05:11:47,0.005,0.0,0.0,0.0
19/04/2023,05:12:47,0.006,0.0,0.0,0.0
19/04/2023,05:13:47,0.006,0.0,0.0,0.0
19/04/2023,05:14:47,0.006,0.0,0.0,0.0
19/04/2023,05:15:47,0.006,0.0,0.0,0.0
19/04/2023,05:16:46,0.006,0.0,0.0,0.0
19/04/2023,05:17:47,0.006,0.0,0.0,0.0
19/04/2023,05:18:47,0.006,0.0,0.0,0.0
19/04/2023,05:19:47,0.007,0.0,0.0,0.0
19/04/2023,05:20:47,0.006,0.0,0.0,0.0
19/04/2023,05:21:47,0.007,0.0,0.0,0.0
19/04/2023,05:22:47,0.007,0.0,0.001,0.001
19/04/2023,05:23:47,0.007,0.0,0.001,0.0
19/04/2023,05:24:47,0.008,0.0,0.001,0.0
19/04/2023,05:25:47,0.008,0.0,0.001,0.0
19/04/2023,05:26:47,0.008,0.0,0.001,0.0
19/04/2023,05:27:47,0.010,0.0,0.001,0.0
19/04/2023,05:28:47,0.010,0.0,0.001,0.0
19/04/2023,05:29:47,0.010,0.0,0.002,0.001
19/04/2023,05:30:46,0.011,0.0,0.002,0.0
19/04/2023,05:31:47,0.011,0.0,0.002,0.0
19/04/2023,05:32:47,0.012,0.0,0.002,0.0
19/04/2023,05:33:47,0.012,0.0,0.002,0.0
19/04/2023,05:34:47,0.013,0.0,0.002,0.0
19/04/2023,05:35:47,0.013,0.0,0.003,0.001
19/04/2023,05:36:47,0.014,0.0,0.003,0.0
19/04/2023,05:37:47,0.015,0.0,0.003,0.0
19/04/2023,05:38:47,0.015,0.0,0.003,0.0
19/04/2023,05:39:47,0.014,0.0,0.004,0.001
19/04/2023,05:40:47,0.015,0.0,0.004,0.0
19/04/2023,05:41:47,0.017,0.0,0.004,0.0
19/04/2023,05:42:47,0.018,0.0,0.004,0.0
19/04/2023,05:43:47,0.017,0.0,0.005,0.001
19/04/2023,05:44:47,0.017,0.0,0.005,0.0
19/04/2023,05:45:47,0.018,0.0,0.005,0.0
19/04/2023,05:46:47,0.018,0.0,0.006,0.001
19/04/2023,05:47:47,0.018,0.0,0.006,0.0
19/04/2023,05:48:47,0.020,0.0,0.006,0.0
19/04/2023,05:49:47,0.019,0.0,0.006,0.0
19/04/2023,05:50:47,0.020,0.0,0.007,0.001
19/04/2023,05:51:47,0.021,0.0,0.007,0.0
19/04/2023,05:52:47,0.020,0.0,0.007,0.0
19/04/2023,05:53:46,0.021,0.0,0.008,0.001
19/04/2023,05:54:47,0.022,0.0,0.008,0.0
19/04/2023,05:55:47,0.023,0.0,0.009,0.001
19/04/2023,05:56:47,0.024,0.0,0.009,0.0
19/04/2023,05:57:47,0.024,0.0,0.009,0.0
19/04/2023,05:58:46,0.025,0.0,0.01,0.001
19/04/2023,05:59:47,0.027,0.0,0.01,0.0
19/04/2023,06:00:47,0.028,0.0,0.011,0.001
19/04/2023,06:01:47,0.030,0.0,0.011,0.0
19/04/2023,06:02:47,0.029,0.0,0.012,0.001
19/04/2023,06:03:47,0.030,0.0,0.012,0.0
19/04/2023,06:04:47,0.031,0.0,0.013,0.001
19/04/2023,06:05:47,0.032,0.0,0.013,0.0
19/04/2023,06:06:47,0.034,0.0,0.014,0.001
19/04/2023,06:07:47,0.034,0.0,0.014,0.0
19/04/2023,06:08:48,0.036,0.0,0.015,0.001
19/04/2023,06:09:47,0.037,0.0,0.015,0.0
19/04/2023,06:10:48,0.038,0.0,0.016,0.001
19/04/2023,06:11:47,0.039,0.0,0.017,0.001
19/04/2023,06:12:47,0.040,0.0,0.017,0.0
19/04/2023,06:13:48,0.041,0.0,0.018,0.001
19/04/2023,06:14:47,0.042,0.0,0.019,0.001
19/04/2023,06:15:47,0.043,0.0,0.019,0.0
19/04/2023,06:16:47,0.045,0.0,0.02,0.001
19/04/2023,06:17:47,0.044,0.0,0.021,0.001
19/04/2023,06:18:47,0.045,0.0,0.022,0.001
19/04/2023,06:19:48,0.048,0.0,0.022,0.0
19/04/2023,06:20:47,0.049,0.0,0.023,0.001
19/04/2023,06:21:47,0.051,0.0,0.024,0.001
19/04/2023,06:22:47,0.053,0.0,0.025,0.001
19/04/2023,06:23:47,0.054,0.0,0.026,0.001
19/04/2023,06:24:47,0.054,0.0,0.027,0.001
19/04/2023,06:25:47,0.056,0.0,0.028,0.001
19/04/2023,06:26:47,0.057,0.0,0.029,0.001
19/04/2023,06:27:47,0.059,0.0,0.03,0.001
19/04/2023,06:28:47,0.059,0.0,0.031,0.001
19/04/2023,06:29:47,0.061,0.0,0.032,0.001
19/04/2023,06:30:47,0.062,0.0,0.033,0.001
19/04/2023,06:31:47,0.062,0.0,0.034,0.001
19/04/2023,06:32:47,0.063,0.0,0.035,0.001
19/04/2023,06:33:47,0.062,0.0,0.036,0.001
19/04/2023,06:34:47,0.064,0.0,0.037,0.001
19/04/2023,06:35:47,0.066,0.0,0.038,0.001
19/04/2023,06:36:47,0.069,0.0,0.039,0.001
19/04/2023,06:37:48,0.073,0.0,0.04,0.001
19/04/2023,06:38:47,0.074,0.0,0.041,0.001
19/04/2023,06:39:47,0.075,0.0,0.043,0.002
19/04/2023,06:40:47,0.077,0.0,0.044,0.001
19/04/2023,06:41:47,0.080,0.0,0.045,0.001
19/04/2023,06:42:47,0.082,0.0,0.047,0.002
19/04/2023,06:43:47,0.084,0.0,0.048,0.001
19/04/2023,06:44:47,0.085,0.0,0.049,0.001
19/04/2023,06:45:47,0.087,0.0,0.051,0.002
19/04/2023,06:46:46,0.089,0.0,0.052,0.001
19/04/2023,06:47:47,0.090,0.0,0.054,0.002
19/04/2023,06:48:47,0.094,0.0,0.055,0.001
19/04/2023,06:49:47,0.094,0.0,0.057,0.002
19/04/2023,06:50:47,0.096,0.0,0.059,0.002
19/04/2023,06:51:47,0.098,0.0,0.06,0.001
19/04/2023,06:52:47,0.098,0.0,0.062,0.002
19/04/2023,06:53:48,0.102,0.0,0.063,0.001
19/04/2023,06:54:47,0.105,0.0,0.065,0.002
19/04/2023,06:55:47,0.107,0.0,0.067,0.002
19/04/2023,06:56:47,0.110,0.0,0.069,0.002
19/04/2023,06:57:47,0.113,0.0,0.071,0.002
19/04/2023,06:58:47,0.115,0.0,0.072,0.001
19/04/2023,06:59:47,0.116,0.0,0.074,0.002
19/04/2023,07:00:47,0.119,0.0,0.076,0.002
19/04/2023,07:01:47,0.120,0.0,0.078,0.002
19/04/2023,07:02:47,0.123,0.0,0.08,0.002
19/04/2023,07:03:47,0.124,0.0,0.082,0.002
19/04/2023,07:04:47,0.126,0.0,0.084,0.002
19/04/2023,07:05:47,0.128,0.0,0.087,0.003
19/04/2023,07:06:47,0.128,0.0,0.089,0.002
19/04/2023,07:07:47,0.130,0.0,0.091,0.002
19/04/2023,07:08:47,0.134,0.0,0.093,0.002
19/04/2023,07:09:47,0.137,0.0,0.095,0.002
19/04/2023,07:10:47,0.138,0.0,0.098,0.003
19/04/2023,07:11:47,0.141,0.0,0.1,0.002
19/04/2023,07:12:47,0.145,0.0,0.102,0.002
19/04/2023,07:13:47,0.150,0.0,0.105,0.003
19/04/2023,07:14:47,0.153,0.0,0.107,0.002
19/04/2023,07:15:47,0.151,0.0,0.11,0.003
19/04/2023,07:16:47,0.159,0.0,0.112,0.002
19/04/2023,07:17:47,0.163,0.0,0.115,0.003
19/04/2023,07:18:47,0.166,0.0,0.118,0.003
19/04/2023,07:19:47,0.169,0.0,0.121,0.003
19/04/2023,07:20:48,0.172,0.0,0.124,0.003
19/04/2023,07:21:47,0.171,0.0,0.126,0.002
19/04/2023,07:22:47,0.176,0.0,0.129,0.003
19/04/2023,07:23:48,0.180,0.0,0.132,0.003
19/04/2023,07:24:47,0.179,0.0,0.135,0.003
19/04/2023,07:25:47,0.182,0.0,0.138,0.003
19/04/2023,07:26:48,0.180,0.0,0.141,0.003
19/04/2023,07:27:47,0.193,0.0,0.144,0.003
19/04/2023,07:28:47,0.198,0.0,0.148,0.004
19/04/2023,07:29:47,0.194,0.0,0.151,0.003
19/04/2023,07:30:47,0.195,0.0,0.154,0.003
19/04/2023,07:31:47,0.195,0.0,0.157,0.003
19/04/2023,07:32:47,0.204,0.0,0.161,0.004
19/04/2023,07:33:47,0.201,0.0,0.164,0.003
19/04/2023,07:34:47,0.211,0.0,0.168,0.004
19/04/2023,07:35:47,0.209,0.0,0.171,0.003
19/04/2023,07:36:48,0.219,1.0,0.175,0.004
19/04/2023,07:37:47,0.219,1.0,0.178,0.003
19/04/2023,07:38:49,0.223,1.0,0.182,0.004
19/04/2023,07:39:47,0.228,1.0,0.186,0.004
19/04/2023,07:40:47,0.236,1.0,0.19,0.004
19/04/2023,07:41:47,0.238,1.0,0.193,0.003
19/04/2023,07:42:47,0.246,1.0,0.198,0.005
19/04/2023,07:43:47,0.252,1.0,0.202,0.004
19/04/2023,07:44:47,0.255,1.0,0.206,0.004
19/04/2023,07:45:47,0.253,1.0,0.21,0.004
19/04/2023,07:46:48,0.260,1.0,0.214,0.004
19/04/2023,07:47:47,0.254,1.0,0.219,0.005
19/04/2023,07:48:47,0.255,1.0,0.223,0.004
19/04/2023,07:49:48,0.252,1.0,0.227,0.004
19/04/2023,07:50:47,0.243,1.0,0.231,0.004
19/04/2023,07:51:47,0.252,1.0,0.235,0.004
19/04/2023,07:52:47,0.258,1.0,0.24,0.005
19/04/2023,07:53:47,0.257,1.0,0.244,0.004
19/04/2023,07:54:47,0.263,1.0,0.248,0.004
19/04/2023,07:55:47,0.271,1.0,0.253,0.005
19/04/2023,07:56:47,0.267,1.0,0.257,0.004
19/04/2023,07:57:47,0.268,1.0,0.262,0.005
19/04/2023,07:58:47,0.282,1.0,0.266,0.004
19/04/2023,07:59:48,0.302,1.0,0.271,0.005
19/04/2023,08:00:47,0.306,1.0,0.276,0.005
19/04/2023,08:01:48,0.305,1.0,0.281,0.005
19/04/2023,08:02:47,0.302,1.0,0.287,0.006
19/04/2023,08:03:47,0.307,1.0,0.292,0.005
19/04/2023,08:04:47,0.342,1.0,0.297,0.005
19/04/2023,08:05:47,0.338,1.0,0.303,0.006
19/04/2023,08:06:47,0.342,1.0,0.309,0.006
19/04/2023,08:07:48,0.347,1.0,0.314,0.005
19/04/2023,08:08:47,0.353,1.0,0.32,0.006
19/04/2023,08:09:47,0.363,1.0,0.326,0.006
19/04/2023,08:10:47,0.373,1.0,0.332,0.006
19/04/2023,08:11:48,0.375,1.0,0.338,0.006
19/04/2023,08:12:47,0.382,1.0,0.344,0.006
19/04/2023,08:13:48,0.380,1.0,0.351,0.007
19/04/2023,08:14:47,0.371,1.0,0.357,0.006
19/04/2023,08:15:47,0.376,1.0,0.364,0.007
19/04/2023,08:16:47,0.399,1.0,0.37,0.006
19/04/2023,08:17:48,0.405,1.0,0.377,0.007
19/04/2023,08:18:47,0.414,1.0,0.383,0.006
19/04/2023,08:19:47,0.411,1.0,0.39,0.007
19/04/2023,08:20:47,0.425,1.0,0.398,0.008
19/04/2023,08:21:47,0.434,1.0,0.404,0.006
19/04/2023,08:22:47,0.439,1.0,0.412,0.008
19/04/2023,08:23:47,0.441,1.0,0.419,0.007
19/04/2023,08:24:47,0.448,1.0,0.427,0.008
19/04/2023,08:25:47,0.450,1.0,0.434,0.007
19/04/2023,08:26:47,0.451,1.0,0.441,0.007
19/04/2023,08:27:47,0.465,1.0,0.449,0.008
19/04/2023,08:28:47,0.467,1.0,0.457,0.008
19/04/2023,08:29:48,0.456,1.0,0.465,0.008
19/04/2023,08:30:47,0.444,1.0,0.472,0.007
19/04/2023,08:31:47,0.424,1.0,0.48,0.008
19/04/2023,08:32:47,0.463,1.0,0.487,0.007
19/04/2023,08:33:47,0.502,1.0,0.495,0.008
19/04/2023,08:34:47,0.457,1.0,0.503,0.008
19/04/2023,08:35:47,0.500,1.0,0.511,0.008
19/04/2023,08:36:47,0.450,1.0,0.519,0.008
19/04/2023,08:37:47,0.448,1.0,0.527,0.008
19/04/2023,08:38:48,0.437,1.0,0.534,0.007
19/04/2023,08:39:47,0.420,1.0,0.541,0.007
19/04/2023,08:40:47,0.441,1.0,0.548,0.007
19/04/2023,08:41:47,0.432,1.0,0.556,0.008
19/04/2023,08:42:48,0.471,1.0,0.563,0.007
19/04/2023,08:43:47,0.473,1.0,0.571,0.008
19/04/2023,08:44:47,0.526,1.0,0.58,0.009
19/04/2023,08:45:48,0.466,1.0,0.588,0.008
19/04/2023,08:46:47,0.482,1.0,0.596,0.008
19/04/2023,08:47:48,0.494,1.0,0.604,0.008
19/04/2023,08:48:47,0.528,1.0,0.613,0.009
19/04/2023,08:49:47,0.490,1.0,0.621,0.008
19/04/2023,08:50:46,0.508,1.0,0.629,0.008
19/04/2023,08:51:48,0.525,1.0,0.638,0.009
19/04/2023,08:53:11,0.507,1.0,0.65,0.012
19/04/2023,08:54:47,0.484,1.0,0.664,0.014
19/04/2023,08:55:47,0.533,1.0,0.672,0.008
19/04/2023,08:56:47,0.517,1.0,0.681,0.009
19/04/2023,08:57:48,0.501,1.0,0.69,0.009
19/04/2023,08:58:47,0.468,1.0,0.698,0.008
19/04/2023,08:59:47,0.492,1.0,0.706,0.008
19/04/2023,09:00:47,0.529,1.0,0.714,0.008
19/04/2023,09:01:47,0.561,1.0,0.723,0.009
19/04/2023,09:02:48,0.511,1.0,0.732,0.009
19/04/2023,09:03:47,0.489,1.0,0.74,0.008
19/04/2023,09:04:47,0.465,1.0,0.748,0.008
19/04/2023,09:05:49,0.445,1.0,0.756,0.008
19/04/2023,09:06:47,0.429,1.0,0.763,0.007
19/04/2023,09:07:47,0.409,1.0,0.77,0.007
19/04/2023,09:08:45,0.378,1.0,0.776,0.006
19/04/2023,09:09:47,0.335,1.0,0.783,0.007
19/04/2023,09:10:47,0.307,1.0,0.788,0.005
19/04/2023,09:11:47,0.293,1.0,0.793,0.005
19/04/2023,09:12:47,0.280,1.0,0.798,0.005
19/04/2023,09:13:47,0.263,1.0,0.802,0.004
19/04/2023,09:14:48,0.261,1.0,0.807,0.005
19/04/2023,09:15:47,0.273,1.0,0.811,0.004
19/04/2023,09:16:47,0.294,1.0,0.816,0.005
19/04/2023,09:17:47,0.322,1.0,0.821,0.005
19/04/2023,09:18:48,0.345,1.0,0.826,0.005
19/04/2023,09:19:48,0.366,1.0,0.832,0.006
19/04/2023,09:20:48,0.383,1.0,0.839,0.007
19/04/2023,09:21:47,0.395,1.0,0.845,0.006
19/04/2023,09:22:48,0.394,1.0,0.852,0.007
19/04/2023,09:23:48,0.384,1.0,0.858,0.006
19/04/2023,09:24:47,0.371,1.0,0.864,0.006
19/04/2023,09:25:48,0.363,1.0,0.871,0.007
19/04/2023,09:26:48,0.363,1.0,0.877,0.006
19/04/2023,09:27:47,0.366,1.0,0.883,0.006
19/04/2023,09:28:47,0.374,1.0,0.889,0.006
19/04/2023,09:29:47,0.380,1.0,0.895,0.006
19/04/2023,09:30:48,0.388,1.0,0.902,0.007
19/04/2023,09:31:47,0.391,1.0,0.908,0.006
19/04/2023,09:32:47,0.397,1.0,0.915,0.007
19/04/2023,09:33:47,0.397,1.0,0.921,0.006
19/04/2023,09:34:47,0.397,1.0,0.928,0.007
19/04/2023,09:35:48,0.396,1.0,0.935,0.007
19/04/2023,09:36:47,0.392,1.0,0.941,0.006
19/04/2023,09:37:47,0.393,1.0,0.948,0.007
19/04/2023,09:38:48,0.399,1.0,0.954,0.006
19/04/2023,09:39:47,0.401,1.0,0.961,0.007
19/04/2023,09:40:48,0.397,1.0,0.968,0.007
19/04/2023,09:41:48,0.396,1.0,0.974,0.006
19/04/2023,09:42:47,0.397,1.0,0.981,0.007
19/04/2023,09:43:48,0.398,1.0,0.987,0.006
19/04/2023,09:44:47,0.404,1.0,0.994,0.007
19/04/2023,09:45:48,0.408,1.0,1.001,0.007
19/04/2023,09:46:47,0.410,1.0,1.008,0.007
19/04/2023,09:47:48,0.415,1.0,1.015,0.007
19/04/2023,09:48:48,0.423,1.0,1.022,0.007
19/04/2023,09:49:47,0.428,1.0,1.029,0.007
19/04/2023,09:50:48,0.432,1.0,1.036,0.007
19/04/2023,09:51:48,0.434,1.0,1.043,0.007
19/04/2023,09:52:47,0.434,1.0,1.05,0.007
19/04/2023,09:53:47,0.439,1.0,1.057,0.007
19/04/2023,09:54:47,0.448,1.0,1.065,0.008
19/04/2023,09:55:47,0.448,1.0,1.072,0.007
19/04/2023,09:56:48,0.455,1.0,1.08,0.008
19/04/2023,09:57:47,0.458,1.0,1.087,0.007
19/04/2023,09:58:48,0.462,1.0,1.095,0.008
19/04/2023,09:59:48,0.473,1.0,1.103,0.008
19/04/2023,10:00:47,0.480,1.0,1.111,0.008
19/04/2023,10:01:48,0.487,1.0,1.119,0.008